Location: Casa Rossa
(45.2389°N, 12.2056°E)
Time: 03:29:10
(UTC+00:00)

Cosmos 2369 - Pass Details

Date: 14 July 2020
Orbit: 838 x 857 km, 71.0° (Epoch: 11 August)

Event Time Altitude Azimuth Distance (km) Brightness Sun altitude
Rises 01:40:07 0° 331° (NNW) 3,435 7.2 -15.6°
Reaches altitude 10° 01:42:35 10° 329° (NNW) 2,496 6.5 -15.4°
Maximum altitude 01:48:15 64° 249° (WSW) 948 3.7 -14.8°
Drops below altitude 10° 01:53:53 10° 169° (S) 2,483 5.8 -14.2°
Enters shadow 01:54:53 - 168° (SSE) 2,857 6.1 -14.1°
